This is the latest recevied weather packets stored in our database for station/object EB5AGF-13. If no packets are shown the sender has not sent any weather packets the latest 10 day(s).
| Time | Temp. | Humidity | Pressure | Rain* | Wind** | Luminosity | Snow |
|---|---|---|---|---|---|---|---|
| 1777664364 | 18.89° C | 88% | 1018.6 hPa | 0 mm | 0.45 m/s, 21° | 0 W/m² | - |
| 1777664061 | 18.89° C | 88% | 1018.4 hPa | 0 mm | 0.89 m/s, 9° | 0 W/m² | - |
| 1777663756 | 18.89° C | 87% | 1018.3 hPa | 0 mm | 0.89 m/s, 46° | 0 W/m² | - |
| 1777663452 | 19.44° C | 87% | 1018.3 hPa | 0 mm | 0.89 m/s, 59° | 0 W/m² | - |
| 1777663148 | 19.44° C | 87% | 1018.3 hPa | 0 mm | 0.89 m/s, 19° | 0 W/m² | - |
| 1777662844 | 19.44° C | 86% | 1018.2 hPa | 0 mm | 0.89 m/s, 58° | 0 W/m² | - |
| 1777662540 | 19.44° C | 86% | 1018.5 hPa | 0 mm | 0.89 m/s, 85° | 0 W/m² | - |
| 1777662236 | 19.44° C | 86% | 1018.2 hPa | 0 mm | 0.89 m/s, 58° | 0 W/m² | - |
| 1777661932 | 19.44° C | 86% | 1018.2 hPa | 0 mm | 0.89 m/s, 12° | 1 W/m² | - |
| 1777661628 | 19.44° C | 85% | 1018.2 hPa | 0 mm | 0.45 m/s, 12° | 2 W/m² | - |
| 1777661325 | 19.44° C | 85% | 1018 hPa | 0 mm | 0.89 m/s, 77° | 3 W/m² | - |
| 1777661020 | 19.44° C | 85% | 1018 hPa | 0 mm | 0.89 m/s, 51° | 4 W/m² | - |
| 1777660713 | 20° C | 85% | 1018.1 hPa | 0 mm | 0.89 m/s, 14° | 6 W/m² | - |
| 1777660412 | 20° C | 85% | 1018.2 hPa | 0 mm | 0.89 m/s, 336° | 8 W/m² | - |
| 1777660112 | 20.56° C | 84% | 1018 hPa | 0 mm | 1.34 m/s, 108° | 9 W/m² | - |
| 1777659812 | 20.56° C | 82% | 1017.9 hPa | 0 mm | 1.79 m/s, 60° | 11 W/m² | - |
| 1777659512 | 20.56° C | 79% | 1017.9 hPa | 0 mm | 0.89 m/s, 22° | 15 W/m² | - |
| 1777659212 | 20.56° C | 79% | 1017.8 hPa | 0 mm | 1.34 m/s, 4° | 21 W/m² | - |
| 1777658908 | 21.11° C | 79% | 1017.7 hPa | 0 mm | 0.89 m/s, 62° | 31 W/m² | - |
| 1777658604 | 21.11° C | 78% | 1017.6 hPa | 0 mm | 0.89 m/s, 29° | 40 W/m² | - |
| 1777658300 | 21.67° C | 76% | 1017.5 hPa | 0 mm | 0.89 m/s, 331° | 42 W/m² | - |
| 1777657996 | 21.67° C | 76% | 1017.4 hPa | 0 mm | 1.34 m/s, 5° | 50 W/m² | - |
| 1777657692 | 21.67° C | 76% | 1017.4 hPa | 0 mm | 0.45 m/s, 62° | 56 W/m² | - |
| 1777657391 | 21.67° C | 75% | 1017.2 hPa | 0 mm | 0.45 m/s, 356° | 61 W/m² | - |
| 1777657084 | 22.22° C | 73% | 1017.4 hPa | 0 mm | 1.79 m/s, 41° | 71 W/m² | - |
* Rain latest hour (hover to see other rain measurements)
** Current wind speed in m/s (hover to see current wind gust speed)